This demonstration page uses our WeatherBlox Daily Observations layout. Learn more.

Left ArrowRight Arrow

39.51506, -84.39828

Hourly Observations for September 3, 2021

Temp ( °F °C ) Dew Point ( °F °C ) Humidity (%) Winds ( mph kmh ) Pressure ( in mb ) Visibility ( mi km ) Precip ( " mm )
12:15 am 00:15 Clear 57 14 59 15 100 100 N 3 6 30.13 1020 10 16 N/A
12:35 am 00:35 Clear 59 15 N/A N/A N 3 6 30.13 1020 10 16 N/A
12:55 am 00:55 Clear 57 14 57 14 100 100 N N/A 30.13 1020 10 16 N/A
1:15 am 01:15 Clear 60 15.3 58 14.6 96 96 NNE 7 11 30.13 1020 10 16 0.01 0.25
1:35 am 01:35 Clear 61 16 58 14.2 89 89 N 6 9 30.13 1020 10 16 0.01 0.25
1:55 am 01:55 Clear 61 16 57 13.8 87 87 N 5 7 30.13 1020 10 16 0.01 0.25
2:15 am 02:15 Clear 61 16.1 57 13.8 86 86 N 5 7 30.13 1020 10 16 N/A
2:35 am 02:35 Clear 60 15.8 56 13.5 86 86 NNW 3 6 30.12 1020 10 16 N/A
2:55 am 02:55 Clear 60 15.4 57 13.9 91 91 N 5 7 30.13 1020 10 16 N/A
3:15 am 03:15 Clear 59 15.1 59 15 99 99 N 5 7 30.13 1020 10 16 N/A
3:35 am 03:35 Clear 59 15.2 57 14.1 93 93 N 3 6 30.13 1020 10 16 N/A
3:55 am 03:55 Clear 59 14.9 58 14.4 97 97 N 5 7 30.14 1021 10 16 0.01 0.25
4:15 am 04:15 Clear 59 14.9 58 14.5 97 97 NNW 3 6 30.14 1021 10 16 N/A
4:35 am 04:35 Clear 57 14 59 15 100 100 N N/A 30.14 1021 10 16 N/A
4:55 am 04:55 Clear 57 14 57 13.7 98 98 N 5 7 30.14 1021 10 16 N/A
5:15 am 05:15 Clear 57 13.8 56 13.5 98 98 ENE 3 6 30.12 1020 10 16 N/A
5:35 am 05:35 Clear 55 13 55 13 100 100 NW 3 6 30.13 1020 10 16 N/A
5:55 am 05:55 Clear 55 13 N/A N/A N N/A 30.13 1020 10 16 0.01 0.25
6:15 am 06:15 Clear 54 12 N/A N/A N 3 6 30.14 1021 10 16 N/A
6:35 am 06:35 Clear 54 12 N/A N/A N 3 6 30.14 1021 10 16 N/A
6:55 am 06:55 Clear 54 12 N/A N/A N N/A 30.14 1021 10 16 N/A
7:15 am 07:15 Hazy 54 12 N/A N/A N 3 6 30.15 1021 7 11 N/A
7:35 am 07:35 Sunny 55 13 N/A N/A N 5 7 30.16 1021 10 16 N/A
7:55 am 07:55 Sunny 56 13.2 55 13 99 99 N 3 6 30.16 1021 10 16 N/A
8:15 am 08:15 Sunny 56 13.6 56 13.3 98 98 N 3 6 30.17 1022 10 16 0.01 0.25
8:35 am 08:35 Sunny 58 14.7 56 13.5 93 93 NNE 3 6 30.17 1022 10 16 0.01 0.25
8:55 am 08:55 Sunny 60 15.5 57 14 91 91 N N/A 30.17 1022 10 16 0.01 0.25
9:15 am 09:15 Sunny 62 16.8 55 13 78 78 ENE 3 6 30.16 1021 10 16 N/A
9:35 am 09:35 Sunny 64 17.6 56 13.2 76 76 ENE 5 7 30.16 1021 10 16 N/A
9:55 am 09:55 Sunny 65 18.3 56 13.6 74 74 NNE 5 7 30.17 1022 10 16 0.01 0.25
10:15 am 10:15 Sunny 67 19.4 56 13.6 69 69 ENE 6 9 30.17 1022 10 16 N/A
10:35 am 10:35 Sunny 70 20.9 53 11.8 56 56 ESE 8 13 30.16 1021 10 16 N/A
10:55 am 10:55 Sunny 70 21.1 54 12.4 58 58 SE 5 7 30.17 1022 10 16 N/A
11:15 am 11:15 Sunny 71 21.6 54 12.1 55 55 E 9 15 30.16 1021 10 16 0.01 0.25
11:35 am 11:35 Sunny 71 21.8 54 12.2 55 55 E 7 11 30.16 1021 10 16 0.01 0.25
11:55 am 11:55 Sunny 73 22.8 53 11.7 50 50 E 7 11 30.16 1021 10 16 0.01 0.25
12:15 pm 12:15 Sunny 73 22.8 55 12.5 52 52 ESE 7 11 30.15 1021 10 16 N/A
12:35 pm 12:35 Sunny 75 23.8 55 12.6 50 50 E 6 9 30.14 1021 10 16 0.01 0.25
12:55 pm 12:55 Sunny 74 23.3 55 12.7 51 51 E 7 11 30.14 1021 10 16 0.01 0.25
1:15 pm 13:15 Sunny 75 23.7 54 12.4 49 49 E 5 7 30.14 1021 10 16 N/A
1:35 pm 13:35 Sunny 75 23.7 55 12.6 50 50 S 3 6 30.13 1020 10 16 0.01 0.25
1:55 pm 13:55 Sunny 74 23.5 55 12.7 51 51 NE 5 7 30.12 1020 10 16 0.01 0.25
2:15 pm 14:15 Sunny 77 25 54 12.1 45 45 E 10 17 30.11 1020 10 16 N/A
2:35 pm 14:35 Sunny 77 25.1 54 12.1 44 44 ENE 8 13 30.10 1019 10 16 N/A
2:55 pm 14:55 Sunny 76 24.7 53 11.4 43 43 N 5 7 30.10 1019 10 16 0.01 0.25
3:15 pm 15:15 Sunny 78 25.3 54 12.3 44 44 N N/A 30.09 1019 10 16 N/A
3:35 pm 15:35 Sunny 77 25 54 12.3 45 45 ENE 9 15 30.08 1019 10 16 N/A
3:55 pm 15:55 Sunny 78 25.6 53 11.5 41 41 E 7 11 30.08 1019 10 16 N/A
4:15 pm 16:15 Sunny 77 24.9 51 10.6 41 41 ESE 6 9 30.07 1018 10 16 N/A
4:35 pm 16:35 Sunny 77 25.1 53 11.7 43 43 N N/A 30.07 1018 10 16 0.01 0.25
4:55 pm 16:55 Sunny 76 24.7 53 11.5 44 44 N N/A 30.07 1018 10 16 0.01 0.25
5:15 pm 17:15 Sunny 77 25 53 11.6 43 43 undefined N/A 30.06 1018 10 16 N/A
5:35 pm 17:35 Sunny 76 24.7 54 12 45 45 NNE 7 11 30.06 1018 10 16 N/A
5:55 pm 17:55 Sunny 76 24.3 54 12.3 47 47 E 3 6 30.06 1018 10 16 N/A
6:15 pm 18:15 Sunny 76 24.7 54 12.1 45 45 ESE 7 11 30.06 1018 10 16 N/A
6:35 pm 18:35 Sunny 75 23.8 55 12.8 50 50 E 7 11 30.07 1018 10 16 N/A
6:55 pm 18:55 Sunny 73 22.7 52 11.3 49 49 E 8 13 30.07 1018 10 16 N/A
7:15 pm 19:15 Sunny 72 22.1 54 12 53 53 ENE 6 9 30.06 1018 10 16 N/A
7:35 pm 19:35 Sunny 71 21.6 53 11.8 54 54 ENE 6 9 30.06 1018 10 16 N/A
7:55 pm 19:55 Sunny 70 20.9 55 12.6 59 59 ENE 7 11 30.05 1018 10 16 N/A
8:15 pm 20:15 Clear 69 20.5 55 12.5 60 60 NE 3 6 30.05 1018 10 16 0.01 0.25
8:35 pm 20:35 Clear 67 19.7 59 14.9 74 74 NE 3 6 30.06 1018 10 16 0.01 0.25
8:55 pm 20:55 Clear 68 19.9 56 13.6 67 67 E 3 6 30.05 1018 10 16 0.01 0.25
9:15 pm 21:15 Clear 66 18.8 59 15 79 79 N 6 9 30.07 1018 10 16 N/A
9:35 pm 21:35 Clear 66 18.9 60 15.3 80 80 N 6 9 30.07 1018 10 16 N/A
9:55 pm 21:55 Clear 66 18.7 59 15 79 79 N 3 6 30.07 1018 10 16 N/A
10:15 pm 22:15 Clear 65 18.4 60 15.4 83 83 NNE 5 7 30.07 1018 10 16 N/A
10:35 pm 22:35 Clear 65 18.3 61 16 87 87 N N/A 30.06 1018 10 16 N/A
10:55 pm 22:55 Clear 64 17.5 61 16.2 92 92 N 3 6 30.06 1018 10 16 N/A
11:15 pm 23:15 Clear 64 17.6 62 16.5 93 93 N N/A 30.05 1018 10 16 N/A
11:35 pm 23:35 Partly Cloudy 63 17.2 62 16.8 98 98 NW 3 6 30.05 1018 10 16 N/A
11:55 pm 23:55 Mostly Cloudy 63 17.4 62 16.6 95 95 N 3 6 30.05 1018 10 16 N/A

Powered by AerisWeather